Lincoln, NE

9:00 PM CST on November 16, 2019 (GMT -0600)
Lincoln Municipal

Weather History for KLNK - August, 2019

Change the Weather History Date:

Thursday, August 22, 2019

  Actual Average Record
Temperature  
Mean Temperature 72 °F 75 °F  
Max Temperature 81 °F 86 °F 103 °F (1948)
Min Temperature 63 °F 63 °F 46 °F (1923)
Degree Days  
Heating Degree Days 0 0  
Month to date heating degree days 0 0  
Since 1 June heating degree days 6 17  
Since 1 July heating degree days 0 1  
Cooling Degree Days 7 10  
Month to date cooling degree days 251 246  
Year to date cooling degree days 997 957  
Since 1 June cooling degree days 925 878  
Growing Degree Days 22 (Base 50)    
Moisture  
Dew Point 63 °F    
Average Humidity 78    
Maximum Humidity 93    
Minimum Humidity 62    
Precipitation  
Precipitation 0.00 in 0.12 in 2.94 in (1933)
Month to date precipitation 2.11 2.44  
Year to date precipitation 23.98 20.53  
Snow  
Snow 0.00 in 0.00 in T in (1954)
Month to date snowfall 0.0 0.0  
Since 1 June snowfall 0.0 0.0  
Since 1 July snowfall 0.0 0.0  
Snow Depth 0.00 in    
Sea Level Pressure  
Sea Level Pressure 30.02 in    
Wind  
Wind Speed 7 mph (ENE)    
Max Wind Speed 14 mph    
Max Gust Speed 19 mph    
Visibility 8 miles    
Events      
T = Trace of Precipitation, MM = Missing Value Source: NWS Daily Summary

Daily Weather History Graph

Daily Weather History Graph

Search for Another Location

Airport or City:

Astronomy

Aug. 22, 2019 Rise Set
Actual Time 6:43 AM CDT 8:15 PM CDT
Civil Twilight 6:14 AM CDT 8:44 PM CDT
Nautical Twilight 5:40 AM CDT 9:18 PM CDT
Astronomical Twilight 5:03 AM CDT 9:55 PM CDT
Moon No Moon Rise 1:23 PM CDT (8/22)
Length of Visible Light 14h 29m
Length of Day
13h 31m
Waning Gibbous, 59% of the Moon is Illuminated
Aug 22
Waning Gibbous
Aug 23
Last Quarter
Aug 30
New
Sep 5
First Quarter
Sep 13
Full

Hourly Weather History & Observations

Time (CDT) Temp. Heat Index Dew Point Humidity Pressure Visibility Wind Dir Wind Speed Gust Speed Precip Events Conditions
12:54 AM 64.0 °F - 61.0 °F 90% 30.04 in 10.0 mi North 5.8 mph - N/A   Clear
1:18 AM 64.0 °F - 62.1 °F 93% 30.06 in 10.0 mi North 3.5 mph - N/A   Partly Cloudy
1:54 AM 64.0 °F - 62.1 °F 93% 30.04 in 10.0 mi ENE 3.5 mph - N/A   Clear
2:54 AM 64.9 °F - 63.0 °F 93% 30.02 in 8.0 mi ENE 4.6 mph - N/A   Clear
3:39 AM 64.0 °F - 62.1 °F 93% 30.04 in 6.0 mi Calm Calm - N/A   Mostly Cloudy
3:54 AM 63.0 °F - 61.0 °F 93% 30.02 in 7.0 mi North 4.6 mph - N/A   Scattered Clouds
4:12 AM 63.0 °F - 61.0 °F 93% 30.04 in 2.0 mi NE 5.8 mph - N/A   Mostly Cloudy
4:19 AM 63.0 °F - 62.1 °F 97% 30.04 in 1.0 mi NE 4.6 mph - N/A   Mist
4:34 AM 63.0 °F - 62.1 °F 97% 30.04 in 0.8 mi Calm Calm - N/A   Overcast
4:52 AM 62.6 °F - 62.6 °F 100% 30.05 in 1.0 mi Calm Calm - N/A   Overcast
4:54 AM 64.0 °F - 62.1 °F 93% 30.03 in 1.2 mi NE 3.5 mph - N/A   Overcast
4:59 AM 64.0 °F - 62.1 °F 93% 30.04 in 3.0 mi ENE 3.5 mph - N/A   Overcast
5:54 AM 64.0 °F - 62.1 °F 93% 30.01 in 7.0 mi North 5.8 mph - N/A   Overcast
6:54 AM 64.0 °F - 61.0 °F 90% 30.03 in 10.0 mi NE 4.6 mph - N/A   Overcast
7:31 AM 64.0 °F - 61.0 °F 90% 30.06 in 10.0 mi NNE 4.6 mph - N/A   Overcast
7:54 AM 64.9 °F - 61.0 °F 87% 30.04 in 10.0 mi NE 4.6 mph - N/A   Overcast
8:11 AM 64.9 °F - 61.0 °F 87% 30.06 in 10.0 mi NE 6.9 mph - N/A   Overcast
8:54 AM 66.0 °F - 62.1 °F 87% 30.05 in 10.0 mi ENE 4.6 mph - N/A   Overcast
9:39 AM 68.0 °F - 63.0 °F 84% 30.06 in 10.0 mi NNE 4.6 mph - N/A   Overcast
9:54 AM 69.1 °F - 63.0 °F 81% 30.04 in 10.0 mi NNE 6.9 mph - N/A   Overcast
10:07 AM 70.0 °F - 64.0 °F 81% 30.06 in 10.0 mi ENE 4.6 mph - N/A   Overcast
11:54 AM 73.0 °F - 64.9 °F 76% 30.03 in 10.0 mi East 8.1 mph - N/A   Overcast
12:54 PM 73.9 °F - 66.0 °F 76% 30.01 in 10.0 mi SE 6.9 mph - N/A   Overcast
1:54 PM 75.0 °F - 66.0 °F 73% 30.00 in 10.0 mi ESE 8.1 mph - N/A   Overcast
2:54 PM 77.0 °F - 66.0 °F 69% 29.99 in 9.0 mi ESE 5.8 mph - N/A   Mostly Cloudy
3:54 PM 80.1 °F 82.3 °F 66.9 °F 64% 29.97 in 10.0 mi East 5.8 mph - N/A   Mostly Cloudy
4:54 PM 79.0 °F - 66.9 °F 66% 29.96 in 10.0 mi ESE 9.2 mph - N/A   Overcast
5:54 PM 79.0 °F - 66.9 °F 66% 29.95 in 10.0 mi ESE 11.5 mph - N/A   Mostly Cloudy
6:54 PM 77.0 °F - 64.9 °F 66% 29.96 in 10.0 mi East 12.7 mph - N/A   Partly Cloudy
7:54 PM 75.0 °F - 64.0 °F 69% 29.94 in 10.0 mi East 10.4 mph - N/A   Clear
8:54 PM 73.9 °F - 63.0 °F 68% 29.97 in 10.0 mi ESE 10.4 mph - N/A   Partly Cloudy
9:54 PM 73.0 °F - 63.0 °F 71% 30.00 in 10.0 mi ESE 9.2 mph - N/A   Mostly Cloudy
10:54 PM 73.0 °F - 61.0 °F 66% 30.02 in 10.0 mi East 11.5 mph - N/A   Overcast
11:54 PM 72.0 °F - 60.1 °F 66% 30.01 in 10.0 mi ESE 9.2 mph - N/A   Overcast